Disclaimer

Please do not use the information listed here in-flight or in-navigation, as they are not provided to us by the airports but are provided by volunteers, so they might be outdated.

Search


Regions


Airport information page

Radio informations:
Tower (TWR) - 118.1 MHz
Automatic Terminal Information Service (ATIS) - 129.725 MHz

Airport informations:
Latitude: 69° 03' 20.73" N
Longitude: 018° 32' 25.28" E
Elevation: 252 feet - 77 meters
Operating hours: Remarks
Operating agency: Military-civil joint use airport
Timezone: UTC+1(+2DT) - Last Sunday in March to last Sunday in October
Fuel: JP-8, SemiKeroscene MIL Spec T-83133, without icing inhibitor

100/130 MIL Spec, low lead, aviation gasoline (BLUE)

Unknown fuel type or whether there is any fuel.

Runway information:
10/28 - 8015 x 148 feet< - >2443 x 45 meters

Recent METARs:
ENDU 212150Z 00000KT CAVOK M19/M21 Q1010 RMK WIND 1100FT 20014KT WIND 2200FT 21013KT
ENDU 212220Z AUTO 00000KT 9999 FEW049/// BKN070/// M18/M20 Q1010 RMK WIND 1100FT 21014KT WIND 2200FT 22012KT
ENDU 212250Z AUTO 00000KT 9999 OVC059/// M18/M20 Q1010 RMK WIND 1100FT 21012KT WIND 2200FT 23016KT

Airport on the map: